Home > Weather > Kapurthala > Past weeks

Flag for India Past Weather in Kapurthala, Punjab, India — Yesterday and Last 2 Weeks

Now
88 °F

Fog.


Feels Like: 105 °F
Forecast: 87 / 103 °F
Wind: No wind

Location: Amritsar Airport

Current Time: Jun 28, 2016 at 10:27:21 PM

Latest Report: Jun 28, 2016 at 10:00 PM


Visibility: 2 mi

Pressure: 29.59 "Hg

Humidity: 79%

Dew Point: 81 °F

Location of KapurthalaLocation

Past Weather in Kapurthala — Graph

°F

Kapurthala Temperature Yesterday

Maximum temperature yesterday: 97 °F (at 4:00 PM)
Minimum temperature yesterday: 82 °F (at 8:30 AM)
Average temperature yesterday: 91 °F

High & Low Weather Summary for the Past Weeks

 TemperatureHumidityPressure
High102 °F (Jun 14, 1:30 PM)100% (Jun 17, 8:30 AM)29.68 "Hg (Jun 17, 8:30 AM)
Low73 °F (Jun 22, 10:30 AM)37% (Jun 14, 3:00 PM)29.33 "Hg (Jun 15, 5:00 PM)
Average89 °F68%29.54 "Hg
* Reported Jun 13 8:30 PM — Jun 28 9:00 PM, Kapurthala, Weather by CustomWeather, © 2016

Note: Actual official high and low records may vary slightly from our data, if they occured in-between our weather recording intervals... More about our weather records

Advertising

Kapurthala Weather History for the Previous 24 Hours

Scroll right to see more
 ConditionsComfort  
Time TempWeatherWind HumidityBarometerVisibility
9:00 PM
Tue, Jun 28
91 °FPassing clouds.2 mph67%29.56 "Hg2 mi
8:30 PM91 °FPassing clouds.6 mph63%29.56 "Hg2 mi
8:00 PM91 °FScattered clouds.3 mph67%29.56 "Hg2 mi
7:30 PM91 °FScattered clouds.3 mph63%29.56 "Hg2 mi
7:00 PM93 °FScattered clouds.3 mph59%29.56 "Hg2 mi
6:30 PM93 °FScattered clouds.5 mph59%29.56 "Hg2 mi
6:00 PM93 °FScattered clouds.5 mph56%29.56 "Hg2 mi
5:30 PM95 °FScattered clouds.5 mph53%29.59 "Hg2 mi
5:00 PM95 °FScattered clouds.6 mph53%29.59 "Hg2 mi
4:30 PM95 °FScattered clouds.7 mph53%29.59 "Hg2 mi
4:00 PM95 °FScattered clouds.7 mph53%29.62 "Hg2 mi
2:30 PM93 °FScattered clouds.1 mph56%29.65 "Hg2 mi
2:00 PM95 °FBroken clouds.1 mph56%29.65 "Hg2 mi
1:30 PM95 °FBroken clouds.3 mph56%29.65 "Hg2 mi
1:00 PM91 °FBroken clouds.5 mph63%29.68 "Hg2 mi
12:30 PM91 °FBroken clouds.2 mph63%29.68 "Hg2 mi
12:00 PM91 °FBroken clouds.No wind59%29.68 "Hg2 mi
11:30 AM90 °FBroken clouds.3 mph63%29.68 "Hg2 mi
11:00 AM88 °FBroken clouds.3 mph66%29.68 "Hg2 mi
10:30 AM86 °FBroken clouds.6 mph66%29.68 "Hg2 mi
10:00 AM86 °FBroken clouds.3 mph70%29.68 "Hg2 mi
9:30 AM86 °FFog.7 mph70%29.65 "Hg2 mi
8:00 AM82 °FFog.5 mph84%29.62 "Hg2 mi
7:30 AM81 °FFog.3 mph89%29.62 "Hg2 mi
7:00 AM81 °FFog.6 mph84%29.62 "Hg2 mi
6:00 AM81 °FFog.3 mph84%29.62 "Hg2 mi
5:30 AM81 °FFog.5 mph79%29.59 "Hg2 mi
5:00 AM81 °FFog.10 mph84%29.56 "Hg2 mi
4:30 AM81 °FFog.9 mph84%29.56 "Hg1 mi
4:00 AM81 °FFog.5 mph89%29.53 "Hg1 mi
3:30 AM81 °FFog.5 mph84%29.53 "Hg1 mi
3:00 AM81 °FThunderstorms. Partly cloudy.6 mph89%29.53 "Hg1 mi
2:30 AM81 °FThunderstorms. Partly cloudy.6 mph89%29.56 "Hg1 mi
2:00 AM82 °FThunderstorms. Partly cloudy.No wind79%29.56 "Hg1 mi
11:00 PM
Mon, Jun 27
88 °FPassing clouds.2 mph79%29.53 "Hg2 mi
10:30 PM90 °FPassing clouds.2 mph71%29.56 "Hg2 mi
10:00 PM90 °FPassing clouds.2 mph67%29.53 "Hg2 mi
Weather by CustomWeather, © 2016

See weather overviewHow to use our weather pages